Time,TemperatureF,DewpointF,PressureIn,WindDirection,WindDirectionDegrees,WindSpeedMPH,WindSpeedGustMPH,Humidity,HourlyPrecipIn,Conditions,Clouds,dailyrainin,SoftwareType,DateUTC
2013-02-15 00:00:00,12.7,5.7,30.16,NNW,337,0.0,1.0,73,0.00,,,0.00,VWS V14.01,2013-02-15 06:00:00,
2013-02-15 00:01:00,14.5,6.8,30.18,NNW,337,0.0,0.0,71,0.00,,,0.00,VWS V14.01,2013-02-15 06:01:00,
2013-02-15 00:05:00,12.6,5.9,30.16,NNW,337,2.0,3.0,74,0.00,,,0.00,VWS V14.01,2013-02-15 06:05:00,
2013-02-15 00:06:00,14.5,6.8,30.18,NNW,337,0.0,1.0,71,0.00,,,0.00,VWS V14.01,2013-02-15 06:06:00,
2013-02-15 00:10:00,12.7,6.0,30.16,NNW,337,0.0,2.0,74,0.00,,,0.00,VWS V14.01,2013-02-15 06:10:00,
2013-02-15 00:12:00,14.5,6.8,30.18,WNW,291,2.0,2.0,71,0.00,,,0.00,VWS V14.01,2013-02-15 06:12:00,
2013-02-15 00:15:00,12.9,6.2,30.17,NNW,337,0.0,0.0,74,0.00,,,0.00,VWS V14.01,2013-02-15 06:15:00,
2013-02-15 00:17:00,14.6,6.6,30.18,West,277,1.0,1.0,70,0.00,,,0.00,VWS V14.01,2013-02-15 06:17:00,
2013-02-15 00:20:00,13.2,6.5,30.17,NNW,337,0.0,0.0,74,0.00,,,0.00,VWS V14.01,2013-02-15 06:20:00,
2013-02-15 00:22:00,14.6,6.6,30.18,West,278,0.0,0.0,70,0.00,,,0.00,VWS V14.01,2013-02-15 06:22:00,
2013-02-15 00:25:00,13.5,6.5,30.17,NNW,337,1.0,1.0,73,0.00,,,0.00,VWS V14.01,2013-02-15 06:25:00,
2013-02-15 00:27:00,14.6,6.6,30.18,West,275,2.0,4.0,70,0.00,,,0.00,VWS V14.01,2013-02-15 06:27:00,
2013-02-15 00:30:00,13.8,6.8,30.17,NNW,337,0.0,2.0,73,0.00,,,0.00,VWS V14.01,2013-02-15 06:30:00,
2013-02-15 00:32:00,14.6,6.3,30.18,West,280,1.0,5.0,69,0.00,,,0.00,VWS V14.01,2013-02-15 06:32:00,
2013-02-15 00:35:00,13.8,6.8,30.17,NNW,337,0.0,0.0,73,0.00,,,0.00,VWS V14.01,2013-02-15 06:35:00,
2013-02-15 00:37:00,14.8,6.5,30.18,West,266,4.0,4.0,69,0.00,,,0.00,VWS V14.01,2013-02-15 06:37:00,
2013-02-15 00:40:00,13.8,6.5,30.17,NNW,337,0.0,0.0,72,0.00,,,0.00,VWS V14.01,2013-02-15 06:40:00,
2013-02-15 00:42:00,14.7,6.7,30.18,West,277,3.0,3.0,70,0.00,,,0.00,VWS V14.01,2013-02-15 06:42:00,
2013-02-15 00:45:00,13.9,6.9,30.17,NNW,337,0.0,0.0,73,0.00,,,0.00,VWS V14.01,2013-02-15 06:45:00,
2013-02-15 00:47:00,14.7,6.4,30.18,West,278,1.0,3.0,69,0.00,,,0.00,VWS V14.01,2013-02-15 06:47:00,
2013-02-15 00:50:00,13.9,6.6,30.17,NNW,337,0.0,0.0,72,0.00,,,0.00,VWS V14.01,2013-02-15 06:50:00,
2013-02-15 00:52:00,14.8,6.5,30.18,West,281,3.0,8.0,69,0.00,,,0.00,VWS V14.01,2013-02-15 06:52:00,
2013-02-15 00:55:00,13.9,6.6,30.17,NNW,337,0.0,0.0,72,0.00,,,0.00,VWS V14.01,2013-02-15 06:55:00,
2013-02-15 00:57:00,14.7,6.7,30.18,WNW,287,2.0,2.0,70,0.00,,,0.00,VWS V14.01,2013-02-15 06:57:00,
2013-02-15 01:00:00,14.0,7.0,30.18,NNW,337,0.0,0.0,73,0.00,,,0.00,VWS V14.01,2013-02-15 07:00:00,
2013-02-15 01:03:00,14.7,6.7,30.18,NW,307,1.0,5.0,70,0.00,,,0.00,VWS V14.01,2013-02-15 07:03:00,
2013-02-15 01:05:00,14.2,6.8,30.18,NNW,337,0.0,0.0,72,0.00,,,0.00,VWS V14.01,2013-02-15 07:05:00,
2013-02-15 01:08:00,14.7,6.4,30.18,WNW,295,2.0,3.0,69,0.00,,,0.00,VWS V14.01,2013-02-15 07:08:00,
2013-02-15 01:10:00,14.3,6.9,30.18,NNW,337,0.0,1.0,72,0.00,,,0.00,VWS V14.01,2013-02-15 07:10:00,
2013-02-15 01:13:00,14.7,6.7,30.18,WNW,287,2.0,4.0,70,0.00,,,0.00,VWS V14.01,2013-02-15 07:13:00,
2013-02-15 01:15:00,14.4,6.7,30.18,NNW,337,0.0,0.0,71,0.00,,,0.00,VWS V14.01,2013-02-15 07:15:00,
2013-02-15 01:18:00,14.7,6.4,30.18,WNW,290,2.0,4.0,69,0.00,,,0.00,VWS V14.01,2013-02-15 07:18:00,
2013-02-15 01:20:00,14.5,6.5,30.18,NNW,337,0.0,1.0,70,0.00,,,0.00,VWS V14.01,2013-02-15 07:20:00,
2013-02-15 01:23:00,14.7,6.4,30.18,WNW,299,1.0,6.0,69,0.00,,,0.00,VWS V14.01,2013-02-15 07:23:00,
2013-02-15 01:25:00,14.5,6.5,30.17,NNW,337,0.0,0.0,70,0.00,,,0.00,VWS V14.01,2013-02-15 07:25:00,
2013-02-15 01:28:00,14.7,6.7,30.18,West,281,4.0,6.0,70,0.00,,,0.00,VWS V14.01,2013-02-15 07:28:00,
2013-02-15 01:30:00,14.6,6.3,30.18,NNW,337,0.0,0.0,69,0.00,,,0.00,VWS V14.01,2013-02-15 07:30:00,
2013-02-15 01:33:00,14.7,6.7,30.18,West,276,1.0,4.0,70,0.00,,,0.00,VWS V14.01,2013-02-15 07:33:00,
2013-02-15 01:35:00,14.6,6.6,30.18,NNW,337,0.0,0.0,70,0.00,,,0.00,VWS V14.01,2013-02-15 07:35:00,
2013-02-15 01:38:00,14.6,6.6,30.18,West,273,5.0,5.0,70,0.00,,,0.00,VWS V14.01,2013-02-15 07:38:00,
2013-02-15 01:40:00,14.6,6.6,30.17,NNW,337,0.0,1.0,70,0.00,,,0.00,VWS V14.01,2013-02-15 07:40:00,
2013-02-15 01:44:00,14.5,6.5,30.18,West,279,3.0,5.0,70,0.00,,,0.00,VWS V14.01,2013-02-15 07:44:00,
2013-02-15 01:45:00,14.6,6.6,30.17,NNW,337,0.0,0.0,70,0.00,,,0.00,VWS V14.01,2013-02-15 07:45:00,
2013-02-15 01:49:00,14.4,6.4,30.18,WNW,303,5.0,5.0,70,0.00,,,0.00,VWS V14.01,2013-02-15 07:49:00,
2013-02-15 01:50:00,14.6,6.6,30.17,NNW,337,0.0,0.0,70,0.00,,,0.00,VWS V14.01,2013-02-15 07:50:00,
2013-02-15 01:54:00,14.3,6.3,30.19,West,279,2.0,8.0,70,0.00,,,0.00,VWS V14.01,2013-02-15 07:54:00,
2013-02-15 01:55:00,14.5,6.8,30.18,NNW,337,0.0,0.0,71,0.00,,,0.00,VWS V14.01,2013-02-15 07:55:00,
2013-02-15 01:59:00,14.2,6.2,30.19,WNW,290,4.0,5.0,70,0.00,,,0.00,VWS V14.01,2013-02-15 07:59:00,
2013-02-15 02:00:00,14.5,6.8,30.18,NNW,337,0.0,0.0,71,0.00,,,0.00,VWS V14.01,2013-02-15 08:00:00,
2013-02-15 02:04:00,14.0,6.0,30.19,West,261,1.0,4.0,70,0.00,,,0.00,VWS V14.01,2013-02-15 08:04:00,
2013-02-15 02:05:00,14.5,6.8,30.18,NNW,337,0.0,1.0,71,0.00,,,0.00,VWS V14.01,2013-02-15 08:05:00,
2013-02-15 02:09:00,13.8,6.2,30.19,WNW,300,3.0,8.0,71,0.00,,,0.00,VWS V14.01,2013-02-15 08:09:00,
2013-02-15 02:10:00,14.5,6.8,30.18,WNW,291,1.0,7.0,71,0.00,,,0.00,VWS V14.01,2013-02-15 08:10:00,
2013-02-15 02:14:00,13.5,5.9,30.19,WNW,282,3.0,7.0,71,0.00,,,0.00,VWS V14.01,2013-02-15 08:14:00,
2013-02-15 02:15:00,14.6,6.6,30.18,West,278,0.0,4.0,70,0.00,,,0.00,VWS V14.01,2013-02-15 08:15:00,
2013-02-15 02:19:00,13.2,5.6,30.19,WNW,298,5.0,6.0,71,0.00,,,0.00,VWS V14.01,2013-02-15 08:19:00,
2013-02-15 02:20:00,14.6,6.6,30.18,West,278,0.0,2.0,70,0.00,,,0.00,VWS V14.01,2013-02-15 08:20:00,
2013-02-15 02:24:00,13.0,5.4,30.19,WNW,303,2.0,5.0,71,0.00,,,0.00,VWS V14.01,2013-02-15 08:24:00,
2013-02-15 02:25:00,14.6,6.6,30.18,West,275,4.0,4.0,70,0.00,,,0.00,VWS V14.01,2013-02-15 08:25:00,
2013-02-15 02:30:00,12.8,5.2,30.19,WNW,284,0.0,4.0,71,0.00,,,0.00,VWS V14.01,2013-02-15 08:30:00,
2013-02-15 02:35:00,12.6,5.0,30.19,WNW,288,0.0,4.0,71,0.00,,,0.00,VWS V14.01,2013-02-15 08:35:00,
2013-02-15 02:40:00,12.4,5.1,30.19,WNW,297,0.0,4.0,72,0.00,,,0.00,VWS V14.01,2013-02-15 08:40:00,
2013-02-15 02:45:00,12.2,4.9,30.19,WNW,298,1.0,4.0,72,0.00,,,0.00,VWS V14.01,2013-02-15 08:45:00,
2013-02-15 02:50:00,12.0,4.7,30.19,WNW,298,0.0,2.0,72,0.00,,,0.00,VWS V14.01,2013-02-15 08:50:00,
2013-02-15 02:55:00,11.8,4.5,30.19,WNW,298,0.0,2.0,72,0.00,,,0.00,VWS V14.01,2013-02-15 08:55:00,
2013-02-15 03:00:00,11.7,4.7,30.19,West,271,1.0,2.0,73,0.00,,,0.00,VWS V14.01,2013-02-15 09:00:00,
2013-02-15 03:05:00,11.6,4.6,30.19,West,271,1.0,2.0,73,0.00,,,0.00,VWS V14.01,2013-02-15 09:05:00,
2013-02-15 03:10:00,11.4,4.7,30.19,West,267,1.0,2.0,74,0.00,,,0.00,VWS V14.01,2013-02-15 09:10:00,
2013-02-15 03:15:00,14.7,6.4,30.18,NW,304,4.0,6.0,69,0.00,,,0.00,VWS V14.01,2013-02-15 09:15:00,
2013-02-15 03:16:00,11.3,4.6,30.19,West,267,0.0,1.0,74,0.00,,,0.00,VWS V14.01,2013-02-15 09:16:00,
2013-02-15 03:20:00,14.7,6.7,30.18,WNW,288,6.0,6.0,70,0.00,,,0.00,VWS V14.01,2013-02-15 09:20:00,
2013-02-15 03:21:00,11.2,4.5,30.20,West,267,0.0,3.0,74,0.00,,,0.00,VWS V14.01,2013-02-15 09:21:00,
2013-02-15 03:25:00,14.7,6.4,30.18,West,271,5.0,6.0,69,0.00,,,0.00,VWS V14.01,2013-02-15 09:25:00,
2013-02-15 03:26:00,11.0,4.3,30.20,West,269,3.0,4.0,74,0.00,,,0.00,VWS V14.01,2013-02-15 09:26:00,
2013-02-15 03:30:00,14.7,6.4,30.18,WNW,287,3.0,7.0,69,0.00,,,0.00,VWS V14.01,2013-02-15 09:30:00,
2013-02-15 03:31:00,10.7,4.3,30.20,West,269,0.0,2.0,75,0.00,,,0.00,VWS V14.01,2013-02-15 09:31:00,
2013-02-15 03:35:00,14.6,6.6,30.18,West,277,0.0,5.0,70,0.00,,,0.00,VWS V14.01,2013-02-15 09:35:00,
2013-02-15 03:36:00,10.4,4.1,30.20,West,269,0.0,3.0,75,0.00,,,0.00,VWS V14.01,2013-02-15 09:36:00,
2013-02-15 03:40:00,14.6,6.6,30.18,NW,319,2.0,6.0,70,0.00,,,0.00,VWS V14.01,2013-02-15 09:40:00,
2013-02-15 03:41:00,10.1,3.8,30.20,NW,311,5.0,5.0,75,0.00,,,0.00,VWS V14.01,2013-02-15 09:41:00,
2013-02-15 03:45:00,14.5,6.5,30.18,NW,311,2.0,5.0,70,0.00,,,0.00,VWS V14.01,2013-02-15 09:45:00,
2013-02-15 03:46:00,10.0,4.0,30.20,WNW,298,0.0,6.0,76,0.00,,,0.00,VWS V14.01,2013-02-15 09:46:00,
2013-02-15 03:50:00,14.3,6.3,30.19,WNW,287,8.0,9.0,70,0.00,,,0.00,VWS V14.01,2013-02-15 09:50:00,
2013-02-15 03:51:00,9.9,3.9,30.20,WNW,298,1.0,4.0,76,0.00,,,0.00,VWS V14.01,2013-02-15 09:51:00,
2013-02-15 03:55:00,14.3,6.3,30.19,West,265,5.0,8.0,70,0.00,,,0.00,VWS V14.01,2013-02-15 09:55:00,
2013-02-15 03:56:00,9.9,3.9,30.20,West,273,2.0,5.0,76,0.00,,,0.00,VWS V14.01,2013-02-15 09:56:00,
2013-02-15 04:00:00,14.1,6.4,30.19,West,275,3.0,6.0,71,0.00,,,0.00,VWS V14.01,2013-02-15 10:00:00,
2013-02-15 04:01:00,9.7,3.7,30.21,NW,309,1.0,5.0,76,0.00,,,0.00,VWS V14.01,2013-02-15 10:01:00,
2013-02-15 04:05:00,13.9,6.2,30.19,West,271,2.0,5.0,71,0.00,,,0.00,VWS V14.01,2013-02-15 10:05:00,
2013-02-15 04:07:00,9.5,3.8,30.21,NW,306,4.0,4.0,77,0.00,,,0.00,VWS V14.01,2013-02-15 10:07:00,
2013-02-15 04:10:00,13.6,6.0,30.19,WNW,296,3.0,8.0,71,0.00,,,0.00,VWS V14.01,2013-02-15 10:10:00,
2013-02-15 04:12:00,9.5,3.8,30.21,NW,313,2.0,2.0,77,0.00,,,0.00,VWS V14.01,2013-02-15 10:12:00,
2013-02-15 04:15:00,13.4,5.8,30.19,WNW,300,3.0,7.0,71,0.00,,,0.00,VWS V14.01,2013-02-15 10:15:00,
2013-02-15 04:17:00,9.4,3.7,30.21,NW,313,1.0,1.0,77,0.00,,,0.00,VWS V14.01,2013-02-15 10:17:00,
2013-02-15 04:20:00,13.1,5.5,30.19,WNW,300,1.0,6.0,71,0.00,,,0.00,VWS V14.01,2013-02-15 10:20:00,
2013-02-15 04:22:00,9.1,3.4,30.21,WNW,284,1.0,2.0,77,0.00,,,0.00,VWS V14.01,2013-02-15 10:22:00,
2013-02-15 04:25:00,13.0,5.4,30.19,NW,304,2.0,5.0,71,0.00,,,0.00,VWS V14.01,2013-02-15 10:25:00,
2013-02-15 04:27:00,9.1,3.4,30.21,West,279,1.0,4.0,77,0.00,,,0.00,VWS V14.01,2013-02-15 10:27:00,
2013-02-15 04:30:00,12.7,5.1,30.19,WNW,284,2.0,5.0,71,0.00,,,0.00,VWS V14.01,2013-02-15 10:30:00,
2013-02-15 04:32:00,9.0,3.3,30.21,NW,305,0.0,0.0,77,0.00,,,0.00,VWS V14.01,2013-02-15 10:32:00,
2013-02-15 04:35:00,12.5,4.9,30.19,WNW,288,0.0,4.0,71,0.00,,,0.00,VWS V14.01,2013-02-15 10:35:00,
2013-02-15 04:37:00,9.0,3.3,30.21,NW,325,1.0,2.0,77,0.00,,,0.00,VWS V14.01,2013-02-15 10:37:00,
2013-02-15 04:40:00,12.3,5.0,30.19,WNW,297,1.0,4.0,72,0.00,,,0.00,VWS V14.01,2013-02-15 10:40:00,
2013-02-15 04:42:00,8.7,3.0,30.22,NW,325,1.0,1.0,77,0.00,,,0.00,VWS V14.01,2013-02-15 10:42:00,
2013-02-15 04:45:00,10.0,4.0,30.20,WNW,298,0.0,6.0,76,0.00,,,0.00,VWS V14.01,2013-02-15 10:45:00,
2013-02-15 04:47:00,8.5,2.8,30.22,NW,325,0.0,1.0,77,0.00,,,0.00,VWS V14.01,2013-02-15 10:47:00,
2013-02-15 04:50:00,12.0,4.7,30.19,WNW,298,2.0,2.0,72,0.00,,,0.00,VWS V14.01,2013-02-15 10:50:00,
2013-02-15 04:53:00,8.3,2.6,30.22,NW,325,0.0,0.0,77,0.00,,,0.00,VWS V14.01,2013-02-15 10:53:00,
2013-02-15 04:55:00,11.8,4.8,30.19,West,271,0.0,4.0,73,0.00,,,0.00,VWS V14.01,2013-02-15 10:55:00,
2013-02-15 04:58:00,8.0,2.3,30.22,NW,322,3.0,3.0,77,0.00,,,0.00,VWS V14.01,2013-02-15 10:58:00,
2013-02-15 05:00:00,11.7,4.7,30.19,West,270,0.0,2.0,73,0.00,,,0.00,VWS V14.01,2013-02-15 11:00:00,
2013-02-15 05:03:00,7.9,2.5,30.23,NW,323,0.0,1.0,78,0.00,,,0.00,VWS V14.01,2013-02-15 11:03:00,
2013-02-15 05:05:00,11.5,4.5,30.20,West,271,0.0,3.0,73,0.00,,,0.00,VWS V14.01,2013-02-15 11:05:00,
2013-02-15 05:08:00,7.7,2.3,30.23,NW,322,1.0,1.0,78,0.00,,,0.00,VWS V14.01,2013-02-15 11:08:00,
2013-02-15 05:10:00,11.4,4.7,30.20,West,267,0.0,2.0,74,0.00,,,0.00,VWS V14.01,2013-02-15 11:10:00,
2013-02-15 05:13:00,7.6,2.2,30.23,NNW,342,1.0,3.0,78,0.00,,,0.00,VWS V14.01,2013-02-15 11:13:00,
2013-02-15 05:15:00,11.3,4.6,30.19,West,267,0.0,1.0,74,0.00,,,0.00,VWS V14.01,2013-02-15 11:15:00,
2013-02-15 05:18:00,7.5,2.1,30.23,NNW,338,1.0,3.0,78,0.00,,,0.00,VWS V14.01,2013-02-15 11:18:00,
2013-02-15 05:20:00,11.1,4.4,30.20,West,267,0.0,3.0,74,0.00,,,0.00,VWS V14.01,2013-02-15 11:20:00,
2013-02-15 05:23:00,7.3,1.9,30.23,NNW,336,0.0,0.0,78,0.00,,,0.00,VWS V14.01,2013-02-15 11:23:00,
2013-02-15 05:25:00,10.9,4.2,30.20,West,269,2.0,4.0,74,0.00,,,0.00,VWS V14.01,2013-02-15 11:25:00,
2013-02-15 05:28:00,7.1,1.7,30.23,NNW,336,3.0,3.0,78,0.00,,,0.00,VWS V14.01,2013-02-15 11:28:00,
2013-02-15 05:30:00,10.7,4.3,30.20,West,269,0.0,2.0,75,0.00,,,0.00,VWS V14.01,2013-02-15 11:30:00,
2013-02-15 05:33:00,6.9,1.5,30.23,NNW,336,0.0,3.0,78,0.00,,,0.00,VWS V14.01,2013-02-15 11:33:00,
2013-02-15 05:35:00,10.4,4.1,30.20,West,269,0.0,3.0,75,0.00,,,0.00,VWS V14.01,2013-02-15 11:35:00,
2013-02-15 05:38:00,6.7,1.3,30.24,NNW,336,0.0,0.0,78,0.00,,,0.00,VWS V14.01,2013-02-15 11:38:00,
2013-02-15 05:40:00,10.1,3.8,30.20,WNW,295,2.0,5.0,75,0.00,,,0.00,VWS V14.01,2013-02-15 11:40:00,
2013-02-15 05:44:00,6.5,1.4,30.24,NNW,336,0.0,2.0,79,0.00,,,0.00,VWS V14.01,2013-02-15 11:44:00,
2013-02-15 05:45:00,10.0,4.0,30.20,WNW,298,0.0,6.0,76,0.00,,,0.00,VWS V14.01,2013-02-15 11:45:00,
2013-02-15 05:49:00,6.3,1.2,30.24,NNW,336,2.0,3.0,79,0.00,,,0.00,VWS V14.01,2013-02-15 11:49:00,
2013-02-15 05:50:00,9.9,3.9,30.20,WNW,298,2.0,4.0,76,0.00,,,0.00,VWS V14.01,2013-02-15 11:50:00,
2013-02-15 05:54:00,6.1,1.0,30.24,NNW,336,0.0,3.0,79,0.00,,,0.00,VWS V14.01,2013-02-15 11:54:00,
2013-02-15 05:55:00,9.9,3.9,30.20,West,273,2.0,5.0,76,0.00,,,0.00,VWS V14.01,2013-02-15 11:55:00,
2013-02-15 05:59:00,6.0,0.9,30.24,North,349,6.0,6.0,79,0.00,,,0.00,VWS V14.01,2013-02-15 11:59:00,
2013-02-15 06:00:00,9.7,3.7,30.21,NW,309,1.0,5.0,76,0.00,,,0.00,VWS V14.01,2013-02-15 12:00:00,
2013-02-15 06:04:00,5.8,0.7,30.24,WNW,291,3.0,6.0,79,0.00,,,0.00,VWS V14.01,2013-02-15 12:04:00,
2013-02-15 06:05:00,9.5,3.8,30.21,NW,306,3.0,4.0,77,0.00,,,0.00,VWS V14.01,2013-02-15 12:05:00,
2013-02-15 06:09:00,5.7,0.6,30.24,NW,323,0.0,7.0,79,0.00,,,0.00,VWS V14.01,2013-02-15 12:09:00,
2013-02-15 06:10:00,9.5,3.8,30.21,NW,313,2.0,6.0,77,0.00,,,0.00,VWS V14.01,2013-02-15 12:10:00,
2013-02-15 06:14:00,5.6,0.8,30.24,NW,323,2.0,2.0,80,0.00,,,0.00,VWS V14.01,2013-02-15 12:14:00,
2013-02-15 06:15:00,9.4,3.7,30.21,NW,313,0.0,3.0,77,0.00,,,0.00,VWS V14.01,2013-02-15 12:15:00,
2013-02-15 06:19:00,5.4,0.3,30.25,WNW,302,1.0,4.0,79,0.00,,,0.00,VWS V14.01,2013-02-15 12:19:00,
2013-02-15 06:20:00,9.2,3.5,30.21,WNW,284,2.0,4.0,77,0.00,,,0.00,VWS V14.01,2013-02-15 12:20:00,
2013-02-15 06:24:00,5.3,0.5,30.25,NNW,334,0.0,8.0,80,0.00,,,0.00,VWS V14.01,2013-02-15 12:24:00,
2013-02-15 06:25:00,9.1,3.4,30.21,West,279,4.0,11.0,77,0.00,,,0.00,VWS V14.01,2013-02-15 12:25:00,
2013-02-15 06:30:00,5.1,0.3,30.25,NNW,336,0.0,4.0,80,0.00,,,0.00,VWS V14.01,2013-02-15 12:30:00,
2013-02-15 06:35:00,5.0,0.2,30.25,NW,304,2.0,8.0,80,0.00,,,0.00,VWS V14.01,2013-02-15 12:35:00,
2013-02-15 06:40:00,4.9,0.1,30.25,NW,317,5.0,7.0,80,0.00,,,0.00,VWS V14.01,2013-02-15 12:40:00,
2013-02-15 06:45:00,4.7,-0.1,30.25,NW,306,6.0,7.0,80,0.00,,,0.00,VWS V14.01,2013-02-15 12:45:00,
2013-02-15 06:50:00,4.6,-0.2,30.25,NW,326,2.0,8.0,80,0.00,,,0.00,VWS V14.01,2013-02-15 12:50:00,
2013-02-15 06:55:00,4.5,-0.3,30.26,NNW,333,5.0,15.0,80,0.00,,,0.00,VWS V14.01,2013-02-15 12:55:00,
2013-02-15 07:00:00,4.5,-0.3,30.26,WNW,294,7.0,11.0,80,0.00,,,0.00,VWS V14.01,2013-02-15 13:00:00,
2013-02-15 07:05:00,4.4,-0.4,30.26,NW,306,7.0,14.0,80,0.00,,,0.00,VWS V14.01,2013-02-15 13:05:00,
2013-02-15 07:10:00,4.3,-0.5,30.27,WNW,291,3.0,12.0,80,0.00,,,0.00,VWS V14.01,2013-02-15 13:10:00,
2013-02-15 07:15:00,4.2,-0.6,30.27,NNW,334,8.0,11.0,80,0.00,,,0.00,VWS V14.01,2013-02-15 13:15:00,
2013-02-15 07:20:00,7.4,2.0,30.23,NNW,336,0.0,3.0,78,0.00,,,0.00,VWS V14.01,2013-02-15 13:20:00,
2013-02-15 07:21:00,4.1,-0.7,30.27,WNW,296,7.0,8.0,80,0.00,,,0.00,VWS V14.01,2013-02-15 13:21:00,
2013-02-15 07:25:00,7.2,1.8,30.23,NNW,336,0.0,3.0,78,0.00,,,0.00,VWS V14.01,2013-02-15 13:25:00,
2013-02-15 07:26:00,4.0,-0.8,30.27,NW,310,5.0,14.0,80,0.00,,,0.00,VWS V14.01,2013-02-15 13:26:00,
2013-02-15 07:30:00,6.9,1.5,30.23,NNW,336,1.0,3.0,78,0.00,,,0.00,VWS V14.01,2013-02-15 13:30:00,
2013-02-15 07:31:00,4.0,-0.8,30.27,NW,311,8.0,9.0,80,0.00,,,0.00,VWS V14.01,2013-02-15 13:31:00,
2013-02-15 07:35:00,6.8,1.4,30.24,NNW,336,0.0,3.0,78,0.00,,,0.00,VWS V14.01,2013-02-15 13:35:00,
2013-02-15 07:36:00,3.9,-0.9,30.28,NNW,329,2.0,9.0,80,0.00,,,0.00,VWS V14.01,2013-02-15 13:36:00,
2013-02-15 07:40:00,6.6,1.5,30.24,NNW,336,2.0,2.0,79,0.00,,,0.00,VWS V14.01,2013-02-15 13:40:00,
2013-02-15 07:41:00,3.9,-0.9,30.28,WNW,294,4.0,12.0,80,0.00,,,0.00,VWS V14.01,2013-02-15 13:41:00,
2013-02-15 07:45:00,6.4,1.3,30.24,NNW,336,0.0,2.0,79,0.00,,,0.00,VWS V14.01,2013-02-15 13:45:00,
2013-02-15 07:46:00,3.8,-1.0,30.28,NW,326,7.0,8.0,80,0.00,,,0.00,VWS V14.01,2013-02-15 13:46:00,
2013-02-15 07:50:00,6.2,1.1,30.24,NNW,336,3.0,3.0,79,0.00,,,0.00,VWS V14.01,2013-02-15 13:50:00,
2013-02-15 07:51:00,3.9,-0.9,30.28,WNW,302,3.0,10.0,80,0.00,,,0.00,VWS V14.01,2013-02-15 13:51:00,
2013-02-15 07:55:00,6.0,0.9,30.24,NNW,336,1.0,3.0,79,0.00,,,0.00,VWS V14.01,2013-02-15 13:55:00,
2013-02-15 07:56:00,3.9,-1.1,30.28,NW,317,2.0,12.0,79,0.00,,,0.00,VWS V14.01,2013-02-15 13:56:00,
2013-02-15 08:00:00,5.9,0.8,30.24,NW,314,3.0,6.0,79,0.00,,,0.00,VWS V14.01,2013-02-15 14:00:00,
2013-02-15 08:01:00,4.0,-1.0,30.28,NNW,331,2.0,7.0,79,0.00,,,0.00,VWS V14.01,2013-02-15 14:01:00,
2013-02-15 08:05:00,4.4,-0.4,30.26,NNW,329,6.0,14.0,80,0.00,,,0.00,VWS V14.01,2013-02-15 14:05:00,
2013-02-15 08:06:00,4.2,-0.9,30.29,WNW,290,4.0,7.0,79,0.00,,,0.00,VWS V14.01,2013-02-15 14:06:00,
2013-02-15 08:10:00,5.6,0.5,30.24,NW,323,0.0,7.0,79,0.00,,,0.00,VWS V14.01,2013-02-15 14:10:00,
2013-02-15 08:11:00,4.3,-0.8,30.29,NW,305,0.0,9.0,79,0.00,,,0.00,VWS V14.01,2013-02-15 14:11:00,
2013-02-15 08:15:00,5.5,0.7,30.24,NW,323,4.0,4.0,80,0.00,,,0.00,VWS V14.01,2013-02-15 14:15:00,
2013-02-15 08:16:00,4.5,-0.6,30.29,WNW,294,6.0,10.0,79,0.00,,,0.00,VWS V14.01,2013-02-15 14:16:00,
2013-02-15 08:20:00,5.3,0.2,30.25,NW,317,4.0,7.0,79,0.00,,,0.00,VWS V14.01,2013-02-15 14:20:00,
2013-02-15 08:21:00,4.8,-0.3,30.29,NNW,330,1.0,8.0,79,0.00,,,0.00,VWS V14.01,2013-02-15 14:21:00,
2013-02-15 08:25:00,5.2,0.4,30.25,NNW,348,0.0,8.0,80,0.00,,,0.00,VWS V14.01,2013-02-15 14:25:00,
2013-02-15 08:26:00,5.1,-0.2,30.30,NW,318,5.0,9.0,78,0.00,,,0.00,VWS V14.01,2013-02-15 14:26:00,
2013-02-15 08:30:00,5.0,0.2,30.25,NNW,336,0.0,4.0,80,0.00,,,0.00,VWS V14.01,2013-02-15 14:30:00,
2013-02-15 08:32:00,5.3,-0.1,30.30,WNW,300,6.0,7.0,78,0.00,,,0.00,VWS V14.01,2013-02-15 14:32:00,
2013-02-15 08:35:00,5.0,0.2,30.25,West,273,2.0,8.0,80,0.00,,,0.00,VWS V14.01,2013-02-15 14:35:00,
2013-02-15 08:37:00,5.6,0.0,30.30,NNW,344,9.0,11.0,77,0.00,,,0.00,VWS V14.01,2013-02-15 14:37:00,
2013-02-15 08:40:00,4.8,0.0,30.25,NW,317,0.0,7.0,80,0.00,,,0.00,VWS V14.01,2013-02-15 14:40:00,
2013-02-15 08:42:00,5.7,0.1,30.30,NW,315,7.0,7.0,77,0.00,,,0.00,VWS V14.01,2013-02-15 14:42:00,
2013-02-15 08:45:00,4.7,-0.1,30.25,West,273,3.0,9.0,80,0.00,,,0.00,VWS V14.01,2013-02-15 14:45:00,
2013-02-15 08:47:00,5.9,0.0,30.30,NW,307,5.0,5.0,76,0.00,,,0.00,VWS V14.01,2013-02-15 14:47:00,
2013-02-15 08:50:00,4.6,-0.2,30.25,NW,321,15.0,15.0,80,0.00,,,0.00,VWS V14.01,2013-02-15 14:50:00,
2013-02-15 08:52:00,6.0,0.1,30.30,NNW,334,5.0,5.0,76,0.00,,,0.00,VWS V14.01,2013-02-15 14:52:00,
2013-02-15 08:55:00,4.5,-0.3,30.26,NW,321,4.0,15.0,80,0.00,,,0.00,VWS V14.01,2013-02-15 14:55:00,
2013-02-15 08:57:00,6.2,0.0,30.31,NW,319,10.0,10.0,75,0.00,,,0.00,VWS V14.01,2013-02-15 14:57:00,
2013-02-15 09:00:00,4.4,-0.4,30.26,NW,321,3.0,11.0,80,0.00,,,0.00,VWS V14.01,2013-02-15 15:00:00,
2013-02-15 09:02:00,6.4,-0.1,30.31,WNW,287,3.0,6.0,74,0.00,,,0.00,VWS V14.01,2013-02-15 15:02:00,
2013-02-15 09:05:00,4.4,-0.4,30.26,NNW,329,6.0,14.0,80,0.00,,,0.00,VWS V14.01,2013-02-15 15:05:00,
2013-02-15 09:07:00,6.6,0.1,30.31,NW,304,5.0,9.0,74,0.00,,,0.00,VWS V14.01,2013-02-15 15:07:00,
2013-02-15 09:10:00,4.3,-0.5,30.27,NW,314,4.0,12.0,80,0.00,,,0.00,VWS V14.01,2013-02-15 15:10:00,
2013-02-15 09:12:00,6.9,0.1,30.31,WNW,291,3.0,10.0,73,0.00,,,0.00,VWS V14.01,2013-02-15 15:12:00,
2013-02-15 09:15:00,4.2,-0.6,30.27,West,275,4.0,11.0,80,0.00,,,0.00,VWS V14.01,2013-02-15 15:15:00,
2013-02-15 09:18:00,7.2,0.4,30.31,NW,315,4.0,8.0,73,0.00,,,0.00,VWS V14.01,2013-02-15 15:18:00,
2013-02-15 09:20:00,4.0,-0.8,30.27,NW,307,9.0,9.0,80,0.00,,,0.00,VWS V14.01,2013-02-15 15:20:00,
2013-02-15 09:23:00,7.4,0.6,30.31,NW,320,4.0,7.0,73,0.00,,,0.00,VWS V14.01,2013-02-15 15:23:00,
2013-02-15 09:25:00,4.0,-0.8,30.27,NW,325,7.0,14.0,80,0.00,,,0.00,VWS V14.01,2013-02-15 15:25:00,
2013-02-15 09:28:00,7.7,0.6,30.31,NW,314,6.0,10.0,72,0.00,,,0.00,VWS V14.01,2013-02-15 15:28:00,
2013-02-15 09:30:00,4.0,-0.8,30.27,West,272,4.0,9.0,80,0.00,,,0.00,VWS V14.01,2013-02-15 15:30:00,
2013-02-15 09:33:00,8.0,0.9,30.31,WNW,296,4.0,10.0,72,0.00,,,0.00,VWS V14.01,2013-02-15 15:33:00,
2013-02-15 09:35:00,3.9,-0.9,30.28,NW,320,12.0,12.0,80,0.00,,,0.00,VWS V14.01,2013-02-15 15:35:00,
2013-02-15 09:38:00,8.1,0.7,30.31,WNW,286,2.0,5.0,71,0.00,,,0.00,VWS V14.01,2013-02-15 15:38:00,
2013-02-15 09:40:00,3.9,-0.9,30.28,WNW,286,5.0,12.0,80,0.00,,,0.00,VWS V14.01,2013-02-15 15:40:00,
2013-02-15 09:43:00,8.3,0.9,30.31,WNW,289,5.0,7.0,71,0.00,,,0.00,VWS V14.01,2013-02-15 15:43:00,
2013-02-15 09:45:00,3.9,-0.9,30.28,NW,320,5.0,8.0,80,0.00,,,0.00,VWS V14.01,2013-02-15 15:45:00,
2013-02-15 09:48:00,8.8,1.3,30.31,North,351,2.0,6.0,71,0.00,,,0.00,VWS V14.01,2013-02-15 15:48:00,
2013-02-15 09:50:00,3.9,-0.9,30.28,WNW,302,3.0,10.0,80,0.00,,,0.00,VWS V14.01,2013-02-15 15:50:00,
2013-02-15 09:53:00,9.3,1.2,30.32,NNW,329,8.0,11.0,69,0.00,,,0.00,VWS V14.01,2013-02-15 15:53:00,
2013-02-15 09:55:00,3.9,-1.1,30.28,NW,317,2.0,12.0,79,0.00,,,0.00,VWS V14.01,2013-02-15 15:55:00,
2013-02-15 09:58:00,9.7,1.6,30.32,NW,321,5.0,5.0,69,0.00,,,0.00,VWS V14.01,2013-02-15 15:58:00,
2013-02-15 10:00:00,4.0,-1.0,30.28,NNW,331,2.0,7.0,79,0.00,,,0.00,VWS V14.01,2013-02-15 16:00:00,
2013-02-15 10:04:00,9.9,1.5,30.32,NW,310,4.0,9.0,68,0.00,,,0.00,VWS V14.01,2013-02-15 16:04:00,
2013-02-15 10:05:00,4.2,-0.9,30.29,WNW,290,4.0,7.0,79,0.00,,,0.00,VWS V14.01,2013-02-15 16:05:00,
2013-02-15 10:09:00,10.3,1.5,30.32,NW,320,1.0,8.0,67,0.00,,,0.00,VWS V14.01,2013-02-15 16:09:00,
2013-02-15 10:10:00,4.3,-0.8,30.29,NW,310,3.0,9.0,79,0.00,,,0.00,VWS V14.01,2013-02-15 16:10:00,
2013-02-15 10:14:00,10.7,2.2,30.31,NW,315,1.0,5.0,68,0.00,,,0.00,VWS V14.01,2013-02-15 16:14:00,
2013-02-15 10:15:00,4.5,-0.6,30.29,WNW,294,6.0,10.0,79,0.00,,,0.00,VWS V14.01,2013-02-15 16:15:00,
2013-02-15 10:19:00,11.3,2.5,30.31,NNW,329,4.0,7.0,67,0.00,,,0.00,VWS V14.01,2013-02-15 16:19:00,
2013-02-15 10:20:00,4.8,-0.3,30.29,NNW,330,1.0,8.0,79,0.00,,,0.00,VWS V14.01,2013-02-15 16:20:00,
2013-02-15 10:24:00,11.6,2.5,30.31,WNW,298,4.0,8.0,66,0.00,,,0.00,VWS V14.01,2013-02-15 16:24:00,
2013-02-15 10:25:00,5.1,-0.2,30.30,NW,318,5.0,9.0,78,0.00,,,0.00,VWS V14.01,2013-02-15 16:25:00,
2013-02-15 10:29:00,11.9,2.7,30.31,NW,320,4.0,7.0,66,0.00,,,0.00,VWS V14.01,2013-02-15 16:29:00,
2013-02-15 10:30:00,5.4,0.0,30.30,NNW,337,7.0,13.0,78,0.00,,,0.00,VWS V14.01,2013-02-15 16:30:00,
2013-02-15 10:34:00,11.9,2.4,30.31,WNW,295,5.0,10.0,65,0.00,,,0.00,VWS V14.01,2013-02-15 16:34:00,
2013-02-15 10:35:00,5.6,0.0,30.30,WNW,292,11.0,11.0,77,0.00,,,0.00,VWS V14.01,2013-02-15 16:35:00,
2013-02-15 10:39:00,12.0,2.2,30.31,NW,320,5.0,10.0,64,0.00,,,0.00,VWS V14.01,2013-02-15 16:39:00,
2013-02-15 10:40:00,5.7,0.1,30.30,WNW,284,5.0,11.0,77,0.00,,,0.00,VWS V14.01,2013-02-15 16:40:00,
2013-02-15 10:45:00,12.4,3.2,30.31,West,269,6.0,8.0,66,0.00,,,0.00,VWS V14.01,2013-02-15 16:45:00,
2013-02-15 10:50:00,12.6,3.1,30.32,WNW,298,4.0,9.0,65,0.00,,,0.00,VWS V14.01,2013-02-15 16:50:00,
2013-02-15 10:55:00,12.7,3.2,30.32,NW,306,6.0,13.0,65,0.00,,,0.00,VWS V14.01,2013-02-15 16:55:00,
2013-02-15 11:00:00,12.7,2.2,30.32,NW,306,3.0,9.0,62,0.00,,,0.00,VWS V14.01,2013-02-15 17:00:00,
2013-02-15 11:05:00,13.1,3.2,30.31,NW,315,4.0,9.0,64,0.00,,,0.00,VWS V14.01,2013-02-15 17:05:00,
2013-02-15 11:10:00,13.6,4.0,30.31,NW,319,5.0,8.0,65,0.00,,,0.00,VWS V14.01,2013-02-15 17:10:00,
2013-02-15 11:15:00,14.2,3.6,30.31,SW,222,2.0,9.0,62,0.00,,,0.00,VWS V14.01,2013-02-15 17:15:00,
2013-02-15 11:20:00,13.7,2.8,30.31,West,279,6.0,11.0,61,0.00,,,0.00,VWS V14.01,2013-02-15 17:20:00,
2013-02-15 11:25:00,13.8,2.8,30.31,WNW,283,5.0,7.0,61,0.00,,,0.00,VWS V14.01,2013-02-15 17:25:00,
2013-02-15 11:30:00,7.9,0.8,30.31,WNW,299,5.0,11.0,72,0.00,,,0.00,VWS V14.01,2013-02-15 17:30:00,
2013-02-15 11:31:00,14.1,3.5,30.31,WNW,283,3.0,10.0,62,0.00,,,0.00,VWS V14.01,2013-02-15 17:31:00,
2013-02-15 11:35:00,8.1,0.7,30.31,NW,323,4.0,10.0,71,0.00,,,0.00,VWS V14.01,2013-02-15 17:35:00,
2013-02-15 11:36:00,14.7,3.7,30.31,NNW,336,3.0,5.0,61,0.00,,,0.00,VWS V14.01,2013-02-15 17:36:00,
2013-02-15 11:40:00,8.3,0.9,30.31,NNW,337,5.0,9.0,71,0.00,,,0.00,VWS V14.01,2013-02-15 17:40:00,
2013-02-15 11:41:00,15.0,3.6,30.31,West,267,4.0,7.0,60,0.00,,,0.00,VWS V14.01,2013-02-15 17:41:00,
2013-02-15 11:45:00,8.6,0.8,30.31,NW,326,4.0,9.0,70,0.00,,,0.00,VWS V14.01,2013-02-15 17:45:00,
2013-02-15 11:46:00,14.5,3.5,30.31,NW,311,4.0,11.0,61,0.00,,,0.00,VWS V14.01,2013-02-15 17:46:00,
2013-02-15 11:50:00,9.1,1.0,30.31,NW,323,5.0,11.0,69,0.00,,,0.00,VWS V14.01,2013-02-15 17:50:00,
2013-02-15 11:51:00,14.9,3.5,30.31,NW,315,5.0,10.0,60,0.00,,,0.00,VWS V14.01,2013-02-15 17:51:00,
2013-02-15 11:55:00,9.5,1.1,30.32,NNW,327,2.0,11.0,68,0.00,,,0.00,VWS V14.01,2013-02-15 17:55:00,
2013-02-15 11:56:00,15.3,3.9,30.30,West,280,4.0,7.0,60,0.00,,,0.00,VWS V14.01,2013-02-15 17:56:00,
2013-02-15 12:00:00,9.9,1.5,30.32,NW,319,9.0,11.0,68,0.00,,,0.00,VWS V14.01,2013-02-15 18:00:00,
2013-02-15 12:01:00,15.2,3.8,30.30,West,276,11.0,12.0,60,0.00,,,0.00,VWS V14.01,2013-02-15 18:01:00,
2013-02-15 12:05:00,10.3,1.9,30.32,NW,318,4.0,9.0,68,0.00,,,0.00,VWS V14.01,2013-02-15 18:05:00,
2013-02-15 12:06:00,14.9,3.9,30.30,NW,306,3.0,11.0,61,0.00,,,0.00,VWS V14.01,2013-02-15 18:06:00,
2013-02-15 12:10:00,10.5,2.0,30.32,NW,319,3.0,8.0,68,0.00,,,0.00,VWS V14.01,2013-02-15 18:10:00,
2013-02-15 12:11:00,15.2,4.5,30.30,NW,318,5.0,11.0,62,0.00,,,0.00,VWS V14.01,2013-02-15 18:11:00,
2013-02-15 12:15:00,10.9,2.1,30.31,WSW,252,5.0,5.0,67,0.00,,,0.00,VWS V14.01,2013-02-15 18:15:00,
2013-02-15 12:16:00,15.6,3.8,30.30,West,274,5.0,8.0,59,0.00,,,0.00,VWS V14.01,2013-02-15 18:16:00,
2013-02-15 12:20:00,11.5,2.7,30.31,NW,307,5.0,7.0,67,0.00,,,0.00,VWS V14.01,2013-02-15 18:20:00,
2013-02-15 12:21:00,15.7,3.2,30.30,NW,309,5.0,12.0,57,0.00,,,0.00,VWS V14.01,2013-02-15 18:21:00,
2013-02-15 12:25:00,11.5,2.4,30.31,NW,322,3.0,8.0,66,0.00,,,0.00,VWS V14.01,2013-02-15 18:25:00,
2013-02-15 12:26:00,16.5,4.7,30.30,NW,310,5.0,9.0,59,0.00,,,0.00,VWS V14.01,2013-02-15 18:26:00,
2013-02-15 12:30:00,11.9,2.4,30.31,WNW,286,2.0,8.0,65,0.00,,,0.00,VWS V14.01,2013-02-15 18:30:00,
2013-02-15 12:31:00,16.9,4.3,30.29,NNW,327,4.0,8.0,57,0.00,,,0.00,VWS V14.01,2013-02-15 18:31:00,
2013-02-15 12:35:00,11.9,2.4,30.31,WNW,286,6.0,10.0,65,0.00,,,0.00,VWS V14.01,2013-02-15 18:35:00,
2013-02-15 12:36:00,16.2,4.0,30.30,NW,304,7.0,11.0,58,0.00,,,0.00,VWS V14.01,2013-02-15 18:36:00,
2013-02-15 12:40:00,12.2,2.7,30.31,West,280,5.0,10.0,65,0.00,,,0.00,VWS V14.01,2013-02-15 18:40:00,
2013-02-15 12:42:00,16.5,4.3,30.30,WNW,288,5.0,11.0,58,0.00,,,0.00,VWS V14.01,2013-02-15 18:42:00,
2013-02-15 12:45:00,12.3,2.8,30.31,West,273,5.0,8.0,65,0.00,,,0.00,VWS V14.01,2013-02-15 18:45:00,
2013-02-15 12:47:00,16.0,4.2,30.29,WSW,253,9.0,9.0,59,0.00,,,0.00,VWS V14.01,2013-02-15 18:47:00,
2013-02-15 12:50:00,12.6,2.4,30.31,NNW,327,7.0,10.0,63,0.00,,,0.00,VWS V14.01,2013-02-15 18:50:00,
2013-02-15 12:52:00,16.8,4.6,30.29,NW,321,9.0,9.0,58,0.00,,,0.00,VWS V14.01,2013-02-15 18:52:00,
2013-02-15 12:55:00,12.8,2.9,30.32,WNW,288,5.0,13.0,64,0.00,,,0.00,VWS V14.01,2013-02-15 18:55:00,
2013-02-15 12:57:00,17.0,4.4,30.29,NW,313,8.0,8.0,57,0.00,,,0.00,VWS V14.01,2013-02-15 18:57:00,
2013-02-15 13:00:00,12.7,2.5,30.31,NW,308,4.0,9.0,63,0.00,,,0.00,VWS V14.01,2013-02-15 19:00:00,
2013-02-15 13:02:00,17.0,4.0,30.29,NNW,334,4.0,10.0,56,0.00,,,0.00,VWS V14.01,2013-02-15 19:02:00,
2013-02-15 13:05:00,13.2,3.3,30.31,West,272,8.0,9.0,64,0.00,,,0.00,VWS V14.01,2013-02-15 19:05:00,
2013-02-15 13:07:00,17.4,6.3,30.29,NW,310,2.0,3.0,61,0.00,,,0.00,VWS V14.01,2013-02-15 19:07:00,
2013-02-15 13:10:00,14.1,4.2,30.31,NW,314,5.0,9.0,64,0.00,,,0.00,VWS V14.01,2013-02-15 19:10:00,
2013-02-15 13:12:00,16.8,4.6,30.29,WNW,286,14.0,14.0,58,0.00,,,0.00,VWS V14.01,2013-02-15 19:12:00,
2013-02-15 13:15:00,14.1,2.8,30.31,SW,223,0.0,9.0,60,0.00,,,0.00,VWS V14.01,2013-02-15 19:15:00,
2013-02-15 13:17:00,16.2,4.0,30.29,NW,315,11.0,14.0,58,0.00,,,0.00,VWS V14.01,2013-02-15 19:17:00,
2013-02-15 13:20:00,13.7,3.1,30.31,West,276,4.0,11.0,62,0.00,,,0.00,VWS V14.01,2013-02-15 19:20:00,
2013-02-15 13:22:00,16.5,3.9,30.29,WNW,290,11.0,12.0,57,0.00,,,0.00,VWS V14.01,2013-02-15 19:22:00,
2013-02-15 13:25:00,13.8,3.2,30.31,WNW,301,3.0,7.0,62,0.00,,,0.00,VWS V14.01,2013-02-15 19:25:00,
2013-02-15 13:27:00,16.8,5.0,30.29,North,360,10.0,14.0,59,0.00,,,0.00,VWS V14.01,2013-02-15 19:27:00,
2013-02-15 13:30:00,14.1,3.1,30.31,West,280,3.0,10.0,61,0.00,,,0.00,VWS V14.01,2013-02-15 19:30:00,
2013-02-15 13:33:00,16.7,3.7,30.29,NW,304,6.0,13.0,56,0.00,,,0.00,VWS V14.01,2013-02-15 19:33:00,
2013-02-15 13:35:00,14.9,4.2,30.31,NNW,336,2.0,5.0,62,0.00,,,0.00,VWS V14.01,2013-02-15 19:35:00,
2013-02-15 13:38:00,16.5,4.3,30.29,West,272,12.0,12.0,58,0.00,,,0.00,VWS V14.01,2013-02-15 19:38:00,
2013-02-15 13:40:00,15.0,3.6,30.31,West,275,7.0,11.0,60,0.00,,,0.00,VWS V14.01,2013-02-15 19:40:00,
2013-02-15 13:43:00,16.3,3.4,30.29,West,272,8.0,12.0,56,0.00,,,0.00,VWS V14.01,2013-02-15 19:43:00,
2013-02-15 13:45:00,14.5,3.5,30.31,WNW,302,4.0,11.0,61,0.00,,,0.00,VWS V14.01,2013-02-15 19:45:00,
2013-02-15 13:48:00,15.8,3.3,30.29,WNW,284,10.0,13.0,57,0.00,,,0.00,VWS V14.01,2013-02-15 19:48:00,
2013-02-15 13:50:00,14.9,3.9,30.31,WNW,301,5.0,10.0,61,0.00,,,0.00,VWS V14.01,2013-02-15 19:50:00,
2013-02-15 13:53:00,16.1,3.9,30.29,NW,323,11.0,13.0,58,0.00,,,0.00,VWS V14.01,2013-02-15 19:53:00,
2013-02-15 13:55:00,15.3,3.9,30.30,West,280,2.0,7.0,60,0.00,,,0.00,VWS V14.01,2013-02-15 19:55:00,
2013-02-15 13:58:00,15.8,3.7,30.29,NW,325,7.0,12.0,58,0.00,,,0.00,VWS V14.01,2013-02-15 19:58:00,
2013-02-15 14:00:00,15.2,3.8,30.30,West,269,11.0,12.0,60,0.00,,,0.00,VWS V14.01,2013-02-15 20:00:00,
2013-02-15 14:03:00,15.5,3.7,30.29,NW,315,6.0,8.0,59,0.00,,,0.00,VWS V14.01,2013-02-15 20:03:00,
2013-02-15 14:05:00,14.9,3.9,30.30,NW,305,4.0,11.0,61,0.00,,,0.00,VWS V14.01,2013-02-15 20:05:00,
2013-02-15 14:08:00,15.4,4.0,30.29,WNW,288,11.0,12.0,60,0.00,,,0.00,VWS V14.01,2013-02-15 20:08:00,
2013-02-15 14:10:00,15.2,4.5,30.30,NW,318,5.0,11.0,62,0.00,,,0.00,VWS V14.01,2013-02-15 20:10:00,
2013-02-15 14:13:00,15.4,4.0,30.29,NNW,329,9.0,14.0,60,0.00,,,0.00,VWS V14.01,2013-02-15 20:13:00,
2013-02-15 14:15:00,15.6,3.8,30.30,West,274,5.0,8.0,59,0.00,,,0.00,VWS V14.01,2013-02-15 20:15:00,
2013-02-15 14:18:00,15.5,3.4,30.29,WNW,284,11.0,11.0,58,0.00,,,0.00,VWS V14.01,2013-02-15 20:18:00,
2013-02-15 14:20:00,15.7,3.2,30.30,NW,309,5.0,12.0,57,0.00,,,0.00,VWS V14.01,2013-02-15 20:20:00,
2013-02-15 14:24:00,15.6,3.5,30.29,WNW,300,10.0,12.0,58,0.00,,,0.00,VWS V14.01,2013-02-15 20:24:00,
2013-02-15 14:25:00,16.5,4.7,30.30,NW,310,5.0,9.0,59,0.00,,,0.00,VWS V14.01,2013-02-15 20:25:00,
2013-02-15 14:29:00,15.5,4.1,30.29,NW,319,9.0,10.0,60,0.00,,,0.00,VWS V14.01,2013-02-15 20:29:00,
2013-02-15 14:30:00,16.9,4.3,30.29,NNW,327,4.0,8.0,57,0.00,,,0.00,VWS V14.01,2013-02-15 20:30:00,
2013-02-15 14:34:00,15.7,3.6,30.29,NNW,336,12.0,13.0,58,0.00,,,0.00,VWS V14.01,2013-02-15 20:34:00,
2013-02-15 14:35:00,16.2,4.0,30.30,NW,304,7.0,11.0,58,0.00,,,0.00,VWS V14.01,2013-02-15 20:35:00,
2013-02-15 14:39:00,15.8,4.0,30.29,NW,315,9.0,11.0,59,0.00,,,0.00,VWS V14.01,2013-02-15 20:39:00,
2013-02-15 14:40:00,16.5,4.3,30.30,NW,313,11.0,12.0,58,0.00,,,0.00,VWS V14.01,2013-02-15 20:40:00,
2013-02-15 14:44:00,16.1,3.6,30.29,NNW,333,6.0,17.0,57,0.00,,,0.00,VWS V14.01,2013-02-15 20:44:00,
2013-02-15 14:45:00,15.9,4.1,30.29,WNW,294,8.0,14.0,59,0.00,,,0.00,VWS V14.01,2013-02-15 20:45:00,
2013-02-15 14:49:00,16.6,4.0,30.29,North,360,3.0,13.0,57,0.00,,,0.00,VWS V14.01,2013-02-15 20:49:00,
2013-02-15 14:50:00,16.8,5.0,30.29,WNW,286,5.0,13.0,59,0.00,,,0.00,VWS V14.01,2013-02-15 20:50:00,
2013-02-15 14:54:00,17.5,5.3,30.28,NW,323,6.0,10.0,58,0.00,,,0.00,VWS V14.01,2013-02-15 20:54:00,
2013-02-15 14:55:00,17.0,4.8,30.29,WNW,291,5.0,11.0,58,0.00,,,0.00,VWS V14.01,2013-02-15 20:55:00,
2013-02-15 14:59:00,18.0,4.6,30.29,NNW,340,10.0,11.0,55,0.00,,,0.00,VWS V14.01,2013-02-15 20:59:00,
2013-02-15 15:00:00,16.9,4.3,30.29,WNW,288,6.0,13.0,57,0.00,,,0.00,VWS V14.01,2013-02-15 21:00:00,
2013-02-15 15:04:00,17.2,4.2,30.29,WNW,296,7.0,12.0,56,0.00,,,0.00,VWS V14.01,2013-02-15 21:04:00,
2013-02-15 15:05:00,17.2,6.1,30.29,NW,309,2.0,10.0,61,0.00,,,0.00,VWS V14.01,2013-02-15 21:05:00,
2013-02-15 15:09:00,17.0,4.0,30.29,WNW,290,6.0,12.0,56,0.00,,,0.00,VWS V14.01,2013-02-15 21:09:00,
2013-02-15 15:10:00,16.9,4.3,30.29,West,277,10.0,13.0,57,0.00,,,0.00,VWS V14.01,2013-02-15 21:10:00,
2013-02-15 15:14:00,17.3,4.3,30.29,NW,304,8.0,17.0,56,0.00,,,0.00,VWS V14.01,2013-02-15 21:14:00,
2013-02-15 15:15:00,16.2,4.0,30.29,West,260,9.0,17.0,58,0.00,,,0.00,VWS V14.01,2013-02-15 21:15:00,
2013-02-15 15:19:00,17.5,4.9,30.29,NNW,341,8.0,14.0,57,0.00,,,0.00,VWS V14.01,2013-02-15 21:19:00,
2013-02-15 15:20:00,16.6,4.4,30.29,NNW,339,12.0,16.0,58,0.00,,,0.00,VWS V14.01,2013-02-15 21:20:00,
2013-02-15 15:25:00,18.3,5.6,30.29,WNW,303,13.0,15.0,57,0.00,,,0.00,VWS V14.01,2013-02-15 21:25:00,
2013-02-15 15:30:00,18.2,5.2,30.29,WNW,294,6.0,12.0,56,0.00,,,0.00,VWS V14.01,2013-02-15 21:30:00,
2013-02-15 15:35:00,18.7,5.2,30.29,NNW,344,4.0,11.0,55,0.00,,,0.00,VWS V14.01,2013-02-15 21:35:00,
2013-02-15 15:40:00,18.5,4.2,30.29,NW,313,6.0,13.0,53,0.00,,,0.00,VWS V14.01,2013-02-15 21:40:00,
2013-02-15 15:45:00,17.7,4.3,30.29,NNW,330,7.0,16.0,55,0.00,,,0.00,VWS V14.01,2013-02-15 21:45:00,
2013-02-15 15:50:00,17.1,4.5,30.29,NW,306,2.0,10.0,57,0.00,,,0.00,VWS V14.01,2013-02-15 21:50:00,
2013-02-15 15:55:00,16.9,4.7,30.29,NNW,336,9.0,9.0,58,0.00,,,0.00,VWS V14.01,2013-02-15 21:55:00,
2013-02-15 16:00:00,16.4,4.2,30.29,NW,311,7.0,11.0,58,0.00,,,0.00,VWS V14.01,2013-02-15 22:00:00,
2013-02-15 16:05:00,16.4,4.2,30.30,NNW,341,5.0,18.0,58,0.00,,,0.00,VWS V14.01,2013-02-15 22:05:00,
2013-02-15 16:10:00,16.9,4.3,30.30,NNW,344,5.0,17.0,57,0.00,,,0.00,VWS V14.01,2013-02-15 22:10:00,
2013-02-15 16:15:00,16.7,3.7,30.30,NNW,339,11.0,15.0,56,0.00,,,0.00,VWS V14.01,2013-02-15 22:15:00,
2013-02-15 16:20:00,16.2,3.7,30.30,NW,323,4.0,14.0,57,0.00,,,0.00,VWS V14.01,2013-02-15 22:20:00,
2013-02-15 16:25:00,15.8,3.3,30.30,NNW,338,5.0,14.0,57,0.00,,,0.00,VWS V14.01,2013-02-15 22:25:00,
2013-02-15 16:30:00,15.3,2.4,30.30,NW,316,9.0,11.0,56,0.00,,,0.00,VWS V14.01,2013-02-15 22:30:00,
2013-02-15 16:35:00,15.0,2.9,30.30,NNW,331,6.0,10.0,58,0.00,,,0.00,VWS V14.01,2013-02-15 22:35:00,
2013-02-15 16:40:00,14.5,1.7,30.30,WNW,300,12.0,19.0,56,0.00,,,0.00,VWS V14.01,2013-02-15 22:40:00,
2013-02-15 16:45:00,14.0,1.6,30.30,NW,306,8.0,16.0,57,0.00,,,0.00,VWS V14.01,2013-02-15 22:45:00,
2013-02-15 16:50:00,16.9,4.3,30.29,NW,323,9.0,13.0,57,0.00,,,0.00,VWS V14.01,2013-02-15 22:50:00,
2013-02-15 16:51:00,13.7,1.7,30.31,NNW,331,4.0,10.0,58,0.00,,,0.00,VWS V14.01,2013-02-15 22:51:00,
2013-02-15 16:55:00,18.0,5.3,30.29,NNW,336,5.0,10.0,57,0.00,,,0.00,VWS V14.01,2013-02-15 22:55:00,
2013-02-15 16:56:00,13.5,1.9,30.31,NW,323,10.0,11.0,59,0.00,,,0.00,VWS V14.01,2013-02-15 22:56:00,
2013-02-15 17:00:00,17.6,5.0,30.29,NW,319,6.0,12.0,57,0.00,,,0.00,VWS V14.01,2013-02-15 23:00:00,
2013-02-15 17:01:00,13.2,1.9,30.31,WNW,293,3.0,8.0,60,0.00,,,0.00,VWS V14.01,2013-02-15 23:01:00,
2013-02-15 17:05:00,16.9,4.3,30.29,North,360,10.0,14.0,57,0.00,,,0.00,VWS V14.01,2013-02-15 23:05:00,
2013-02-15 17:06:00,13.0,2.1,30.31,NW,319,3.0,7.0,61,0.00,,,0.00,VWS V14.01,2013-02-15 23:06:00,
2013-02-15 17:10:00,17.2,4.2,30.29,NW,312,4.0,13.0,56,0.00,,,0.00,VWS V14.01,2013-02-15 23:10:00,
2013-02-15 17:11:00,12.8,1.9,30.31,NW,309,5.0,11.0,61,0.00,,,0.00,VWS V14.01,2013-02-15 23:11:00,
2013-02-15 17:15:00,16.6,3.7,30.30,NW,307,8.0,15.0,56,0.00,,,0.00,VWS V14.01,2013-02-15 23:15:00,
2013-02-15 17:16:00,12.7,2.2,30.31,NW,323,5.0,7.0,62,0.00,,,0.00,VWS V14.01,2013-02-15 23:16:00,
2013-02-15 17:20:00,17.7,4.7,30.29,NNW,348,7.0,15.0,56,0.00,,,0.00,VWS V14.01,2013-02-15 23:20:00,
2013-02-15 17:21:00,12.5,2.0,30.31,NW,324,6.0,9.0,62,0.00,,,0.00,VWS V14.01,2013-02-15 23:21:00,
2013-02-15 17:25:00,18.1,4.7,30.29,NW,322,6.0,16.0,55,0.00,,,0.00,VWS V14.01,2013-02-15 23:25:00,
2013-02-15 17:26:00,12.4,1.9,30.31,NW,310,5.0,11.0,62,0.00,,,0.00,VWS V14.01,2013-02-15 23:26:00,
2013-02-15 17:30:00,18.5,5.4,30.29,NW,309,6.0,12.0,56,0.00,,,0.00,VWS V14.01,2013-02-15 23:30:00,
2013-02-15 17:31:00,12.2,1.7,30.32,WNW,302,3.0,9.0,62,0.00,,,0.00,VWS V14.01,2013-02-15 23:31:00,
2013-02-15 17:35:00,18.9,5.4,30.29,WNW,298,10.0,15.0,55,0.00,,,0.00,VWS V14.01,2013-02-15 23:35:00,
2013-02-15 17:37:00,12.1,1.6,30.32,NW,309,2.0,2.0,62,0.00,,,0.00,VWS V14.01,2013-02-15 23:37:00,
2013-02-15 17:40:00,18.2,4.4,30.29,NW,318,4.0,18.0,54,0.00,,,0.00,VWS V14.01,2013-02-15 23:40:00,
2013-02-15 17:42:00,12.0,1.8,30.32,NW,312,2.0,3.0,63,0.00,,,0.00,VWS V14.01,2013-02-15 23:42:00,
2013-02-15 17:45:00,17.5,4.5,30.29,NNW,338,7.0,16.0,56,0.00,,,0.00,VWS V14.01,2013-02-15 23:45:00,
2013-02-15 17:47:00,11.8,1.6,30.32,WNW,298,4.0,5.0,63,0.00,,,0.00,VWS V14.01,2013-02-15 23:47:00,
2013-02-15 17:50:00,17.0,4.4,30.29,NNW,336,6.0,10.0,57,0.00,,,0.00,VWS V14.01,2013-02-15 23:50:00,
2013-02-15 17:52:00,11.7,1.9,30.32,NW,319,0.0,0.0,64,0.00,,,0.00,VWS V14.01,2013-02-15 23:52:00,
2013-02-15 17:55:00,16.7,4.5,30.29,NW,326,3.0,11.0,58,0.00,,,0.00,VWS V14.01,2013-02-15 23:55:00,
2013-02-15 17:57:00,11.4,2.3,30.32,NW,313,1.0,2.0,66,0.00,,,0.00,VWS V14.01,2013-02-15 23:57:00,
2013-02-15 18:00:00,16.3,4.1,30.29,WNW,302,9.0,23.0,58,0.00,,,0.00,VWS V14.01,2013-02-16 00:00:00,
2013-02-15 18:02:00,11.2,2.1,30.32,NW,311,4.0,4.0,66,0.00,,,0.00,VWS V14.01,2013-02-16 00:02:00,
2013-02-15 18:05:00,16.7,4.1,30.30,NW,309,14.0,18.0,57,0.00,,,0.00,VWS V14.01,2013-02-16 00:05:00,
2013-02-15 18:07:00,11.0,2.2,30.31,NW,306,3.0,3.0,67,0.00,,,0.00,VWS V14.01,2013-02-16 00:07:00,
2013-02-15 18:10:00,16.9,4.3,30.30,WNW,298,10.0,17.0,57,0.00,,,0.00,VWS V14.01,2013-02-16 00:10:00,
2013-02-15 18:12:00,10.9,2.4,30.31,NW,306,0.0,0.0,68,0.00,,,0.00,VWS V14.01,2013-02-16 00:12:00,
2013-02-15 18:15:00,16.6,3.7,30.30,NW,307,8.0,15.0,56,0.00,,,0.00,VWS V14.01,2013-02-16 00:15:00,
2013-02-15 18:17:00,10.7,2.5,30.32,NW,306,2.0,3.0,69,0.00,,,0.00,VWS V14.01,2013-02-16 00:17:00,
2013-02-15 18:20:00,16.1,3.6,30.30,NW,317,12.0,14.0,57,0.00,,,0.00,VWS V14.01,2013-02-16 00:20:00,
2013-02-15 18:22:00,10.7,2.5,30.32,WNW,301,0.0,0.0,69,0.00,,,0.00,VWS V14.01,2013-02-16 00:22:00,
2013-02-15 18:25:00,15.7,3.2,30.30,WNW,284,7.0,14.0,57,0.00,,,0.00,VWS V14.01,2013-02-16 00:25:00,
2013-02-15 18:28:00,10.6,2.8,30.32,WNW,301,0.0,2.0,70,0.00,,,0.00,VWS V14.01,2013-02-16 00:28:00,
2013-02-15 18:30:00,15.3,2.8,30.30,NW,312,10.0,14.0,57,0.00,,,0.00,VWS V14.01,2013-02-16 00:30:00,
2013-02-15 18:33:00,10.5,2.7,30.32,WNW,300,0.0,0.0,70,0.00,,,0.00,VWS V14.01,2013-02-16 00:33:00,
2013-02-15 18:35:00,14.9,2.4,30.30,WNW,302,14.0,15.0,57,0.00,,,0.00,VWS V14.01,2013-02-16 00:35:00,
2013-02-15 18:38:00,10.3,2.5,30.32,WNW,300,0.0,0.0,70,0.00,,,0.00,VWS V14.01,2013-02-16 00:38:00,
2013-02-15 18:40:00,14.4,2.0,30.30,NW,325,8.0,19.0,57,0.00,,,0.00,VWS V14.01,2013-02-16 00:40:00,
2013-02-15 18:43:00,10.1,2.3,30.32,WNW,301,0.0,0.0,70,0.00,,,0.00,VWS V14.01,2013-02-16 00:43:00,
2013-02-15 18:45:00,14.0,1.6,30.31,NW,309,6.0,16.0,57,0.00,,,0.00,VWS V14.01,2013-02-16 00:45:00,
2013-02-15 18:48:00,9.9,2.4,30.32,WNW,300,0.0,0.0,71,0.00,,,0.00,VWS V14.01,2013-02-16 00:48:00,
2013-02-15 18:50:00,13.7,1.7,30.31,NW,317,7.0,10.0,58,0.00,,,0.00,VWS V14.01,2013-02-16 00:50:00,
2013-02-15 18:53:00,9.8,2.3,30.32,NW,319,0.0,3.0,71,0.00,,,0.00,VWS V14.01,2013-02-16 00:53:00,
2013-02-15 18:55:00,13.5,2.2,30.31,NW,308,5.0,11.0,60,0.00,,,0.00,VWS V14.01,2013-02-16 00:55:00,
2013-02-15 18:58:00,9.5,1.7,30.32,NW,319,1.0,2.0,70,0.00,,,0.00,VWS V14.01,2013-02-16 00:58:00,
2013-02-15 19:00:00,13.2,2.3,30.31,NW,313,3.0,8.0,61,0.00,,,0.00,VWS V14.01,2013-02-16 01:00:00,
2013-02-15 19:03:00,9.3,1.5,30.32,NW,319,1.0,2.0,70,0.00,,,0.00,VWS V14.01,2013-02-16 01:03:00,
2013-02-15 19:05:00,13.0,2.1,30.31,NW,319,2.0,7.0,61,0.00,,,0.00,VWS V14.01,2013-02-16 01:05:00,
2013-02-15 19:08:00,9.2,1.4,30.33,NW,319,0.0,0.0,70,0.00,,,0.00,VWS V14.01,2013-02-16 01:08:00,
2013-02-15 19:10:00,12.8,1.9,30.31,West,277,5.0,11.0,61,0.00,,,0.00,VWS V14.01,2013-02-16 01:10:00,
2013-02-15 19:13:00,9.0,1.2,30.33,NW,319,0.0,0.0,70,0.00,,,0.00,VWS V14.01,2013-02-16 01:13:00,
2013-02-15 19:15:00,12.7,2.2,30.31,NW,304,5.0,7.0,62,0.00,,,0.00,VWS V14.01,2013-02-16 01:15:00,
2013-02-15 19:18:00,8.7,0.9,30.33,NW,319,0.0,0.0,70,0.00,,,0.00,VWS V14.01,2013-02-16 01:18:00,
2013-02-15 19:20:00,12.5,2.0,30.31,NW,323,5.0,9.0,62,0.00,,,0.00,VWS V14.01,2013-02-16 01:20:00,
2013-02-15 19:23:00,8.4,0.6,30.33,NW,319,0.0,0.0,70,0.00,,,0.00,VWS V14.01,2013-02-16 01:23:00,
2013-02-15 19:25:00,12.4,1.9,30.31,NW,304,4.0,11.0,62,0.00,,,0.00,VWS V14.01,2013-02-16 01:25:00,
2013-02-15 19:28:00,8.1,0.7,30.33,NW,319,0.0,0.0,71,0.00,,,0.00,VWS V14.01,2013-02-16 01:28:00,
2013-02-15 19:30:00,12.2,1.7,30.32,WNW,300,2.0,9.0,62,0.00,,,0.00,VWS V14.01,2013-02-16 01:30:00,
2013-02-15 19:34:00,7.6,0.2,30.32,NW,319,0.0,0.0,71,0.00,,,0.00,VWS V14.01,2013-02-16 01:34:00,
2013-02-15 19:35:00,12.1,1.6,30.32,NW,309,1.0,10.0,62,0.00,,,0.00,VWS V14.01,2013-02-16 01:35:00,
2013-02-15 19:39:00,7.2,-0.2,30.32,NW,319,0.0,0.0,71,0.00,,,0.00,VWS V14.01,2013-02-16 01:39:00,
2013-02-15 19:40:00,11.9,1.7,30.32,NW,313,3.0,6.0,63,0.00,,,0.00,VWS V14.01,2013-02-16 01:40:00,
2013-02-15 19:44:00,6.5,-0.9,30.32,NW,319,0.0,0.0,71,0.00,,,0.00,VWS V14.01,2013-02-16 01:44:00,
2013-02-15 19:45:00,11.8,1.6,30.32,WNW,293,2.0,8.0,63,0.00,,,0.00,VWS V14.01,2013-02-16 01:45:00,
2013-02-15 19:49:00,5.9,-1.2,30.32,NW,319,0.0,0.0,72,0.00,,,0.00,VWS V14.01,2013-02-16 01:49:00,
2013-02-15 19:50:00,11.6,1.8,30.32,NW,319,0.0,7.0,64,0.00,,,0.00,VWS V14.01,2013-02-16 01:50:00,
2013-02-15 19:54:00,5.3,-1.5,30.32,NW,319,0.0,0.0,73,0.00,,,0.00,VWS V14.01,2013-02-16 01:54:00,
2013-02-15 19:55:00,11.4,1.9,30.32,NW,313,2.0,4.0,65,0.00,,,0.00,VWS V14.01,2013-02-16 01:55:00,
2013-02-15 19:59:00,4.6,-1.9,30.32,NW,319,0.0,0.0,74,0.00,,,0.00,VWS V14.01,2013-02-16 01:59:00,
2013-02-15 20:00:00,11.2,2.1,30.32,NW,310,2.0,6.0,66,0.00,,,0.00,VWS V14.01,2013-02-16 02:00:00,
2013-02-15 20:04:00,4.1,-2.3,30.32,NW,319,0.0,0.0,74,0.00,,,0.00,VWS V14.01,2013-02-16 02:04:00,
2013-02-15 20:05:00,11.1,2.3,30.32,NW,311,1.0,4.0,67,0.00,,,0.00,VWS V14.01,2013-02-16 02:05:00,
2013-02-15 20:09:00,3.7,-2.4,30.32,NW,319,0.0,0.0,75,0.00,,,0.00,VWS V14.01,2013-02-16 02:09:00,
2013-02-15 20:10:00,10.9,2.4,30.32,NW,306,0.0,3.0,68,0.00,,,0.00,VWS V14.01,2013-02-16 02:10:00,
2013-02-15 20:15:00,3.2,-2.6,30.32,NW,319,0.0,0.0,76,0.00,,,0.00,VWS V14.01,2013-02-16 02:15:00,
2013-02-15 20:20:00,2.8,-3.0,30.32,NW,319,0.0,0.0,76,0.00,,,0.00,VWS V14.01,2013-02-16 02:20:00,
2013-02-15 20:25:00,2.4,-3.2,30.32,NW,319,0.0,1.0,77,0.00,,,0.00,VWS V14.01,2013-02-16 02:25:00,
2013-02-15 20:30:00,2.1,-3.4,30.32,NW,319,0.0,1.0,77,0.00,,,0.00,VWS V14.01,2013-02-16 02:30:00,
2013-02-15 20:35:00,1.9,-3.4,30.32,NW,319,0.0,0.0,78,0.00,,,0.00,VWS V14.01,2013-02-16 02:35:00,
2013-02-15 20:40:00,1.7,-3.6,30.32,NW,319,0.0,0.0,78,0.00,,,0.00,VWS V14.01,2013-02-16 02:40:00,
2013-02-15 20:45:00,1.5,-3.8,30.32,NW,319,0.0,0.0,78,0.00,,,0.00,VWS V14.01,2013-02-16 02:45:00,
2013-02-15 20:50:00,1.2,-3.8,30.32,NW,319,0.0,0.0,79,0.00,,,0.00,VWS V14.01,2013-02-16 02:50:00,
2013-02-15 20:55:00,1.0,-4.0,30.32,NW,319,0.0,0.0,79,0.00,,,0.00,VWS V14.01,2013-02-16 02:55:00,
2013-02-15 21:00:00,4.4,-2.0,30.32,NW,319,0.0,0.0,74,0.00,,,0.00,VWS V14.01,2013-02-16 03:00:00,
2013-02-15 21:01:00,0.8,-4.2,30.32,NW,319,0.0,1.0,79,0.00,,,0.00,VWS V14.01,2013-02-16 03:01:00,
2013-02-15 21:05:00,3.9,-2.2,30.32,NW,319,0.0,0.0,75,0.00,,,0.00,VWS V14.01,2013-02-16 03:05:00,
2013-02-15 21:06:00,0.6,-4.4,30.32,NW,319,0.0,0.0,79,0.00,,,0.00,VWS V14.01,2013-02-16 03:06:00,
2013-02-15 21:10:00,9.1,1.3,30.33,NW,319,0.0,0.0,70,0.00,,,0.00,VWS V14.01,2013-02-16 03:10:00,
2013-02-15 21:11:00,0.4,-4.3,30.32,NW,319,0.0,0.0,80,0.00,,,0.00,VWS V14.01,2013-02-16 03:11:00,
2013-02-15 21:15:00,8.9,1.1,30.33,NW,319,0.0,0.0,70,0.00,,,0.00,VWS V14.01,2013-02-16 03:15:00,
2013-02-15 21:16:00,0.2,-4.5,30.32,NW,319,0.0,0.0,80,0.00,,,0.00,VWS V14.01,2013-02-16 03:16:00,
2013-02-15 21:20:00,2.7,-3.1,30.32,NW,319,0.0,0.0,76,0.00,,,0.00,VWS V14.01,2013-02-16 03:20:00,
2013-02-15 21:21:00,0.1,-4.7,30.32,NW,319,0.0,0.0,80,0.00,,,0.00,VWS V14.01,2013-02-16 03:21:00,
2013-02-15 21:25:00,8.2,0.4,30.33,NW,319,0.0,0.0,70,0.00,,,0.00,VWS V14.01,2013-02-16 03:25:00,
2013-02-15 21:26:00,-0.1,-4.8,30.32,NW,319,0.0,0.0,80,0.00,,,0.00,VWS V14.01,2013-02-16 03:26:00,
2013-02-15 21:30:00,7.8,0.4,30.33,NW,319,0.0,0.0,71,0.00,,,0.00,VWS V14.01,2013-02-16 03:30:00,
2013-02-15 21:31:00,-0.3,-5.0,30.32,NW,319,0.0,1.0,80,0.00,,,0.00,VWS V14.01,2013-02-16 03:31:00,
2013-02-15 21:35:00,7.4,0.0,30.32,NW,319,0.0,0.0,71,0.00,,,0.00,VWS V14.01,2013-02-16 03:35:00,
2013-02-15 21:36:00,-0.5,-5.2,30.32,NW,319,0.0,2.0,80,0.00,,,0.00,VWS V14.01,2013-02-16 03:36:00,
2013-02-15 21:40:00,1.6,-3.7,30.32,NW,319,0.0,0.0,78,0.00,,,0.00,VWS V14.01,2013-02-16 03:40:00,
2013-02-15 21:41:00,-0.7,-5.4,30.32,NW,319,1.0,2.0,80,0.00,,,0.00,VWS V14.01,2013-02-16 03:41:00,
2013-02-15 21:45:00,6.1,-1.0,30.32,NW,319,0.0,0.0,72,0.00,,,0.00,VWS V14.01,2013-02-16 03:45:00,
2013-02-15 21:46:00,-0.8,-5.5,30.32,NW,319,0.0,1.0,80,0.00,,,0.00,VWS V14.01,2013-02-16 03:46:00,
2013-02-15 21:50:00,5.6,-1.2,30.32,NW,319,0.0,0.0,73,0.00,,,0.00,VWS V14.01,2013-02-16 03:50:00,
2013-02-15 21:52:00,-1.0,-5.7,30.32,NW,319,0.0,1.0,80,0.00,,,0.00,VWS V14.01,2013-02-16 03:52:00,
2013-02-15 21:55:00,5.0,-1.8,30.32,NW,319,0.0,0.0,73,0.00,,,0.00,VWS V14.01,2013-02-16 03:55:00,
2013-02-15 21:57:00,-1.1,-5.8,30.32,NW,319,0.0,1.0,80,0.00,,,0.00,VWS V14.01,2013-02-16 03:57:00,
2013-02-15 22:00:00,4.4,-2.0,30.32,NW,319,0.0,0.0,74,0.00,,,0.00,VWS V14.01,2013-02-16 04:00:00,
2013-02-15 22:02:00,-1.2,-5.9,30.32,NW,319,1.0,1.0,80,0.00,,,0.00,VWS V14.01,2013-02-16 04:02:00,
2013-02-15 22:05:00,3.9,-2.2,30.32,NW,319,0.0,0.0,75,0.00,,,0.00,VWS V14.01,2013-02-16 04:05:00,
2013-02-15 22:07:00,-1.3,-5.7,30.32,NW,319,0.0,0.0,81,0.00,,,0.00,VWS V14.01,2013-02-16 04:07:00,
2013-02-15 22:10:00,3.5,-2.6,30.32,NW,319,0.0,0.0,75,0.00,,,0.00,VWS V14.01,2013-02-16 04:10:00,
2013-02-15 22:12:00,-1.4,-5.8,30.31,NW,319,1.0,1.0,81,0.00,,,0.00,VWS V14.01,2013-02-16 04:12:00,
2013-02-15 22:15:00,3.0,-2.8,30.32,NW,319,0.0,0.0,76,0.00,,,0.00,VWS V14.01,2013-02-16 04:15:00,
2013-02-15 22:17:00,-1.4,-5.8,30.32,NW,319,0.0,0.0,81,0.00,,,0.00,VWS V14.01,2013-02-16 04:17:00,
2013-02-15 22:20:00,2.7,-3.1,30.32,NW,319,0.0,0.0,76,0.00,,,0.00,VWS V14.01,2013-02-16 04:20:00,
2013-02-15 22:22:00,-1.5,-5.9,30.31,NW,319,0.0,1.0,81,0.00,,,0.00,VWS V14.01,2013-02-16 04:22:00,
2013-02-15 22:25:00,2.3,-3.2,30.32,NW,319,1.0,1.0,77,0.00,,,0.00,VWS V14.01,2013-02-16 04:25:00,
2013-02-15 22:27:00,-1.6,-6.0,30.32,NW,319,0.0,0.0,81,0.00,,,0.00,VWS V14.01,2013-02-16 04:27:00,
2013-02-15 22:30:00,2.0,-3.3,30.32,NW,319,0.0,1.0,78,0.00,,,0.00,VWS V14.01,2013-02-16 04:30:00,
2013-02-15 22:32:00,-1.6,-6.0,30.32,NW,319,0.0,0.0,81,0.00,,,0.00,VWS V14.01,2013-02-16 04:32:00,
2013-02-15 22:35:00,1.8,-3.5,30.32,NW,319,0.0,0.0,78,0.00,,,0.00,VWS V14.01,2013-02-16 04:35:00,
2013-02-15 22:37:00,-1.7,-6.1,30.32,NW,319,0.0,0.0,81,0.00,,,0.00,VWS V14.01,2013-02-16 04:37:00,
2013-02-15 22:40:00,1.6,-3.7,30.32,NW,319,0.0,0.0,78,0.00,,,0.00,VWS V14.01,2013-02-16 04:40:00,
2013-02-15 22:42:00,-1.8,-5.9,30.32,NW,319,0.0,0.0,82,0.00,,,0.00,VWS V14.01,2013-02-16 04:42:00,
2013-02-15 22:45:00,1.4,-3.8,30.32,NW,319,0.0,0.0,78,0.00,,,0.00,VWS V14.01,2013-02-16 04:45:00,
2013-02-15 22:47:00,-1.8,-5.9,30.32,NW,319,0.0,0.0,82,0.00,,,0.00,VWS V14.01,2013-02-16 04:47:00,
2013-02-15 22:50:00,1.1,-4.1,30.32,NW,319,0.0,0.0,78,0.00,,,0.00,VWS V14.01,2013-02-16 04:50:00,
2013-02-15 22:52:00,-1.9,-6.0,30.31,NW,319,0.0,0.0,82,0.00,,,0.00,VWS V14.01,2013-02-16 04:52:00,
2013-02-15 22:55:00,0.9,-4.1,30.32,NW,319,1.0,1.0,79,0.00,,,0.00,VWS V14.01,2013-02-16 04:55:00,
2013-02-15 22:57:00,-2.0,-6.1,30.31,NW,319,0.0,0.0,82,0.00,,,0.00,VWS V14.01,2013-02-16 04:57:00,
2013-02-15 23:00:00,-2.1,-6.2,30.31,NW,319,0.0,0.0,82,0.00,,,0.00,VWS V14.01,2013-02-16 05:00:00,
2013-02-15 23:05:00,-2.2,-6.3,30.31,NW,319,0.0,0.0,82,0.00,,,0.00,VWS V14.01,2013-02-16 05:05:00,
2013-02-15 23:10:00,-2.3,-6.4,30.31,NW,319,0.0,0.0,82,0.00,,,0.00,VWS V14.01,2013-02-16 05:10:00,
2013-02-15 23:15:00,-2.4,-6.5,30.31,NW,319,0.0,0.0,82,0.00,,,0.00,VWS V14.01,2013-02-16 05:15:00,
2013-02-15 23:20:00,-2.4,-6.5,30.31,NW,319,0.0,0.0,82,0.00,,,0.00,VWS V14.01,2013-02-16 05:20:00,
2013-02-15 23:23:00,-2.4,-6.3,30.31,NW,319,0.0,0.0,83,0.00,,,0.00,VWS V14.01,2013-02-16 05:23:00,
2013-02-15 23:25:00,-0.1,-4.8,30.32,NW,319,0.0,0.0,80,0.00,,,0.00,VWS V14.01,2013-02-16 05:25:00,
2013-02-15 23:28:00,-2.4,-6.3,30.31,NW,319,0.0,0.0,83,0.00,,,0.00,VWS V14.01,2013-02-16 05:28:00,
2013-02-15 23:30:00,-0.3,-5.0,30.32,NW,319,0.0,1.0,80,0.00,,,0.00,VWS V14.01,2013-02-16 05:30:00,
2013-02-15 23:33:00,-2.4,-6.3,30.31,NW,319,0.0,0.0,83,0.00,,,0.00,VWS V14.01,2013-02-16 05:33:00,
2013-02-15 23:35:00,-0.5,-5.2,30.32,NW,319,0.0,2.0,80,0.00,,,0.00,VWS V14.01,2013-02-16 05:35:00,
2013-02-15 23:38:00,-2.5,-6.4,30.31,NW,319,0.0,0.0,83,0.00,,,0.00,VWS V14.01,2013-02-16 05:38:00,
2013-02-15 23:40:00,-0.7,-5.4,30.32,NW,319,1.0,2.0,80,0.00,,,0.00,VWS V14.01,2013-02-16 05:40:00,
2013-02-15 23:43:00,-2.5,-6.4,30.31,NW,319,0.0,0.0,83,0.00,,,0.00,VWS V14.01,2013-02-16 05:43:00,
2013-02-15 23:45:00,-0.8,-5.5,30.32,NW,319,0.0,1.0,80,0.00,,,0.00,VWS V14.01,2013-02-16 05:45:00,
2013-02-15 23:48:00,-2.5,-6.4,30.31,NW,319,0.0,0.0,83,0.00,,,0.00,VWS V14.01,2013-02-16 05:48:00,
2013-02-15 23:50:00,-1.9,-6.0,30.31,NW,319,0.0,0.0,82,0.00,,,0.00,VWS V14.01,2013-02-16 05:50:00,
2013-02-15 23:53:00,-2.4,-6.3,30.31,NW,319,0.0,1.0,83,0.00,,,0.00,VWS V14.01,2013-02-16 05:53:00,
2013-02-15 23:55:00,-1.1,-5.8,30.32,NW,319,0.0,1.0,80,0.00,,,0.00,VWS V14.01,2013-02-16 05:55:00,
2013-02-15 23:58:00,-2.4,-6.0,30.31,NW,319,0.0,0.0,84,0.00,,,0.00,VWS V14.01,2013-02-16 05:58:00,